| time (UTC) | temp F | wind direction | speed MPH | gust MPH | rain 1hr in | rain 24hr in | rain mn in | humidity % | barometer mb |
| 20260509131534 | 70 | 332 | 5.0 | 12.0 | 0.00 | 0.00 | 0.00 | 46 | 1015.4 |
| 20260509130050 | 71 | 312 | 6.0 | 11.0 | 0.00 | 0.00 | 0.00 | 45 | 1015.5 |
| 20260509124538 | 70 | 260 | 5.0 | 8.0 | 0.00 | 0.00 | 0.00 | 49 | 1015.5 |
| 20260509123032 | 71 | 339 | 4.0 | 11.0 | 0.00 | 0.00 | 0.00 | 48 | 1015.8 |
| 20260509121530 | 71 | 232 | 2.0 | 11.0 | 0.00 | 0.00 | 0.00 | 49 | 1016.0 |
| 20260509120032 | 71 | 309 | 6.0 | 11.0 | 0.00 | 0.00 | 0.00 | 47 | 1016.1 |
| 20260509114524 | 71 | 15 | 4.0 | 11.0 | 0.00 | 0.00 | 0.00 | 48 | 1016.3 |
| 20260509113023 | 71 | 314 | 4.0 | 10.0 | 0.00 | 0.00 | 0.00 | 51 | 1016.4 |
| 20260509111519 | 70 | 279 | 6.0 | 11.0 | 0.00 | 0.00 | 0.00 | 49 | 1016.6 |
| 20260509110020 | 70 | 311 | 8.0 | 13.0 | 0.00 | 0.00 | 0.00 | 50 | 1016.9 |
| 20260509104514 | 69 | 242 | 5.0 | 12.0 | 0.00 | 0.00 | 0.00 | 52 | 1017.0 |
| 20260509103015 | 68 | 337 | 5.0 | 13.0 | 0.00 | 0.00 | 0.00 | 54 | 1017.0 |
| 20260509101509 | 68 | 325 | 7.0 | 13.0 | 0.00 | 0.00 | 0.00 | 55 | 1017.2 |
| 20260509100007 | 67 | 261 | 7.0 | 13.0 | 0.00 | 0.00 | 0.00 | 53 | 1017.4 |
| 20260509094507 | 67 | 306 | 9.0 | 16.0 | 0.00 | 0.00 | 0.00 | 56 | 1017.3 |
| 20260509093004 | 67 | 294 | 8.0 | 14.0 | 0.00 | 0.00 | 0.00 | 54 | 1017.3 |
| 20260509091501 | 66 | 278 | 6.0 | 12.0 | 0.00 | 0.00 | 0.00 | 56 | 1017.4 |
| 20260509090058 | 65 | 263 | 8.0 | 13.0 | 0.00 | 0.00 | 0.00 | 58 | 1017.5 |
| 20260509084555 | 64 | 275 | 7.0 | 13.0 | 0.00 | 0.00 | 0.00 | 59 | 1017.5 |
| 20260509083051 | 63 | 324 | 8.0 | 13.0 | 0.00 | 0.00 | 0.00 | 60 | 1017.6 |
| 20260509081552 | 62 | 296 | 9.0 | 14.0 | 0.00 | 0.00 | 0.00 | 61 | 1017.8 |
| 20260509080046 | 62 | 265 | 6.0 | 12.0 | 0.00 | 0.00 | 0.00 | 63 | 1017.8 |
| 20260509074541 | 60 | 310 | 5.0 | 12.0 | 0.00 | 0.00 | 0.00 | 66 | 1017.8 |
| 20260509073039 | 59 | 275 | 6.0 | 12.0 | 0.00 | 0.00 | 0.00 | 66 | 1017.6 |
| 20260509071534 | 57 | 272 | 4.0 | 9.0 | 0.00 | 0.00 | 0.00 | 69 | 1017.8 |
| 20260509070030 | 56 | 299 | 9.0 | 12.0 | 0.00 | 0.00 | 0.00 | 70 | 1017.7 |
| 20260509064525 | 54 | 304 | 7.0 | 11.0 | 0.00 | 0.00 | 0.00 | 73 | 1017.7 |
| 20260509063020 | 52 | 285 | 7.0 | 13.0 | 0.00 | 0.00 | 0.00 | 75 | 1017.6 |
| 20260509061518 | 51 | 285 | 5.0 | 11.0 | 0.00 | 0.00 | 0.00 | 79 | 1017.5 |
| 20260509060018 | 49 | 268 | 6.0 | 10.0 | 0.00 | 0.00 | 0.00 | 81 | 1017.6 |
| 20260509054517 | 48 | 269 | 5.0 | 10.0 | 0.00 | 0.00 | 0.00 | 83 | 1017.5 |
| 20260509053116 | 47 | 279 | 6.0 | 9.0 | 0.00 | 0.00 | 0.00 | 83 | 1017.3 |
| 20260509051515 | 46 | 258 | 6.0 | 10.0 | 0.00 | 0.00 | 0.00 | 84 | 1017.3 |
| 20260509050015 | 46 | 271 | 6.0 | 11.0 | 0.00 | 0.00 | 0.00 | 84 | 1017.2 |
| 20260509044512 | 45 | 269 | 7.0 | 11.0 | 0.00 | 0.00 | 0.00 | 84 | 1017.1 |
| 20260509043009 | 45 | 269 | 5.0 | 10.0 | 0.00 | 0.00 | 0.00 | 84 | 1016.9 |
| 20260509041508 | 45 | 268 | 6.0 | 10.0 | 0.00 | 0.00 | 0.00 | 84 | 1016.9 |
| 20260509040005 | 46 | 265 | 6.0 | 10.0 | 0.00 | 0.00 | 0.00 | 84 | 1017.0 |
| 20260509034501 | 46 | 271 | 5.0 | 10.0 | 0.00 | 0.00 | 0.00 | 83 | 1016.9 |
| 20260509033100 | 46 | 273 | 7.0 | 10.0 | 0.00 | 0.00 | 0.00 | 83 | 1017.0 |
| 20260509031557 | 46 | 260 | 7.0 | 10.0 | 0.00 | 0.00 | 0.00 | 83 | 1017.0 |
| 20260509030056 | 47 | 273 | 6.0 | 9.0 | 0.00 | 0.00 | 0.00 | 83 | 1017.1 |
| 20260509024553 | 47 | 260 | 6.0 | 9.0 | 0.00 | 0.00 | 0.00 | 83 | 1017.1 |
| 20260509023100 | 47 | 272 | 5.0 | 8.0 | 0.00 | 0.00 | 0.00 | 83 | 1017.1 |
| 20260509021548 | 47 | 273 | 5.0 | 8.0 | 0.00 | 0.00 | 0.00 | 83 | 1017.2 |
| 20260509020047 | 47 | 271 | 4.0 | 6.0 | 0.00 | 0.00 | 0.00 | 82 | 1017.3 |
| 20260509014546 | 47 | 271 | 5.0 | 8.0 | 0.00 | 0.00 | 0.00 | 81 | 1017.2 |
| 20260509013050 | 48 | 271 | 5.0 | 8.0 | 0.00 | 0.00 | 0.00 | 81 | 1017.3 |
| 20260509011541 | 48 | 270 | 4.0 | 6.0 | 0.00 | 0.00 | 0.00 | 80 | 1017.3 |
| 20260509010039 | 48 | 271 | 3.0 | 8.0 | 0.00 | 0.00 | 0.00 | 78 | 1017.3 |
| 20260509004540 | 49 | 277 | 4.0 | 6.0 | 0.00 | 0.00 | 0.00 | 77 | 1017.3 |
| 20260509003041 | 50 | 283 | 3.0 | 7.0 | 0.00 | 0.00 | 0.00 | 76 | 1017.5 |
| 20260509001531 | 50 | 304 | 4.0 | 8.0 | 0.00 | 0.00 | 0.00 | 75 | 1017.5 |
| 20260509000036 | 50 | 291 | 4.0 | 7.0 | 0.00 | 0.00 | 0.00 | 75 | 1017.6 |
| 20260508234535 | 50 | 289 | 4.0 | 7.0 | 0.00 | 0.00 | 0.00 | 75 | 1017.5 |
| 20260508233025 | 50 | 291 | 4.0 | 7.0 | 0.00 | 0.00 | 0.00 | 75 | 1017.7 |
| 20260508231524 | 50 | 292 | 4.0 | 8.0 | 0.00 | 0.00 | 0.00 | 75 | 1017.7 |
| 20260508230022 | 51 | 296 | 5.0 | 8.0 | 0.00 | 0.00 | 0.00 | 76 | 1017.7 |
| 20260508224519 | 51 | 306 | 4.0 | 8.0 | 0.00 | 0.00 | 0.00 | 75 | 1017.7 |
| 20260508223018 | 51 | 306 | 4.0 | 9.0 | 0.00 | 0.00 | 0.00 | 75 | 1017.9 |
| 20260508221515 | 51 | 308 | 5.0 | 9.0 | 0.00 | 0.00 | 0.00 | 75 | 1017.6 |
| 20260508220011 | 52 | 283 | 5.0 | 9.0 | 0.00 | 0.00 | 0.00 | 74 | 1017.7 |
| 20260508214514 | 52 | 271 | 6.0 | 9.0 | 0.00 | 0.00 | 0.00 | 73 | 1017.5 |
| 20260508213020 | 52 | 273 | 5.0 | 8.0 | 0.00 | 0.00 | 0.00 | 72 | 1017.6 |
| 20260508211510 | 53 | 268 | 3.0 | 8.0 | 0.00 | 0.00 | 0.00 | 71 | 1017.4 |
| 20260508210010 | 53 | 294 | 5.0 | 11.0 | 0.00 | 0.00 | 0.00 | 70 | 1017.3 |
| 20260508204509 | 53 | 289 | 4.0 | 8.0 | 0.00 | 0.00 | 0.00 | 70 | 1017.4 |
| 20260508203006 | 53 | 272 | 3.0 | 6.0 | 0.00 | 0.00 | 0.00 | 69 | 1017.3 |
| 20260508201512 | 54 | 270 | 3.0 | 6.0 | 0.00 | 0.00 | 0.00 | 68 | 1017.4 |
| 20260508200013 | 55 | 267 | 3.0 | 6.0 | 0.00 | 0.00 | 0.00 | 67 | 1017.2 |
| 20260508194506 | 55 | 263 | 4.0 | 6.0 | 0.00 | 0.00 | 0.00 | 65 | 1017.2 |
| 20260508193007 | 56 | 289 | 4.0 | 6.0 | 0.00 | 0.00 | 0.00 | 64 | 1017.0 |
| 20260508191503 | 57 | 271 | 3.0 | 5.0 | 0.00 | 0.00 | 0.00 | 63 | 1016.8 |
| 20260508190006 | 58 | 278 | 2.0 | 4.0 | 0.00 | 0.00 | 0.00 | 61 | 1016.6 |
| 20260508184506 | 59 | 265 | 2.0 | 6.0 | 0.00 | 0.00 | 0.00 | 60 | 1016.4 |
| 20260508183002 | 59 | 268 | 5.0 | 10.0 | 0.00 | 0.00 | 0.00 | 58 | 1016.3 |
| 20260508181501 | 60 | 255 | 2.0 | 6.0 | 0.00 | 0.00 | 0.00 | 57 | 1016.2 |
| 20260508180111 | 61 | 275 | 3.0 | 8.0 | 0.00 | 0.00 | 0.00 | 56 | 1016.0 |
| 20260508174604 | 61 | 246 | 3.0 | 9.0 | 0.00 | 0.00 | 0.00 | 55 | 1015.8 |
| 20260508173059 | 62 | 271 | 5.0 | 10.0 | 0.00 | 0.00 | 0.00 | 53 | 1015.8 |
| 20260508171558 | 63 | 271 | 6.0 | 12.0 | 0.00 | 0.00 | 0.00 | 51 | 1015.7 |
| 20260508170058 | 63 | 276 | 8.0 | 12.0 | 0.00 | 0.00 | 0.00 | 54 | 1015.5 |
| 20260508164558 | 63 | 307 | 7.0 | 11.0 | 0.00 | 0.00 | 0.00 | 53 | 1015.6 |
| 20260508163102 | 63 | 327 | 6.0 | 11.0 | 0.00 | 0.00 | 0.00 | 53 | 1015.7 |
| 20260508161606 | 64 | 267 | 8.0 | 12.0 | 0.00 | 0.00 | 0.00 | 52 | 1015.6 |
| 20260508160057 | 63 | 301 | 3.0 | 11.0 | 0.00 | 0.00 | 0.00 | 53 | 1015.6 |
| 20260508154558 | 64 | 278 | 6.0 | 11.0 | 0.00 | 0.00 | 0.00 | 52 | 1015.8 |
| 20260508153055 | 64 | 296 | 5.0 | 12.0 | 0.00 | 0.00 | 0.00 | 53 | 1015.9 |
| 20260508151557 | 64 | 307 | 7.0 | 15.0 | 0.00 | 0.00 | 0.00 | 54 | 1016.1 |
| 20260508150051 | 63 | 302 | 4.0 | 12.0 | 0.00 | 0.00 | 0.00 | 55 | 1016.1 |
| 20260508144549 | 63 | 302 | 6.0 | 11.0 | 0.00 | 0.00 | 0.00 | 55 | 1016.1 |
| 20260508143050 | 63 | 328 | 10.0 | 14.0 | 0.00 | 0.00 | 0.00 | 55 | 1016.3 |
| 20260508141547 | 64 | 263 | 7.0 | 14.0 | 0.00 | 0.00 | 0.00 | 53 | 1016.3 |
| 20260508140046 | 64 | 323 | 11.0 | 16.0 | 0.00 | 0.00 | 0.00 | 53 | 1016.4 |
| 20260508134544 | 65 | 296 | 8.0 | 15.0 | 0.00 | 0.00 | 0.00 | 53 | 1016.3 |
| 20260508133101 | 65 | 258 | 2.0 | 13.0 | 0.00 | 0.00 | 0.00 | 51 | 1016.5 |